カタログに戻る

HULIANWANG DIGUI-39

運用中通信PO
NORAD 64960·PAYLOAD·🇨🇳 China

打ち上げ Jul 27, 2025 から Taiyuan Satellite Launch Center

Loading…

次のパス (今後24時間)

TLE

最新Source: Space-Track

元期: Sep 14, 2026, 23:25 UTC

1 64960U 25159E   26257.97626025 -.00000064  00000-0 -18261-3 0  9999
2 64960  86.4890 252.0417 0002077  88.2946 271.8425 13.24403689 55016

AllMySatでHULIANWANG DIGUI-39をリアルタイム追跡

Download on the App Store